[TLELIST] Archives

 

[list_settings.list_name] Current TLEs

December 7th 2009 PST

HST 1 20580U 90037B 09338.68284624 .00000360 00000-0 14795-4 0 4845 2 20580 028.4690 069.5105 0003396 289.8843 070.1349 15.00862710875492 ISS (ZARYA) 1 25544U 98067A 09340.42890369 .00008240 00000-0 55161-4 0 1186 2 25544 051.6448 141.6680 0007643 055.0623 039.6114 15.76317026633090 CXO 1 25867U 99040B 09341.04166667 .00000288 00000-0 10000-3 0 4013 2 25867 066.2084 062.4723 7842093 275.2422 001.2882 00.37808531 5660 ____________________________________________________________________ These 2-Line ...Continue Reading

[list_settings.list_name] Current TLEs

December 6th 2009 PST

HST 1 20580U 90037B 09338.68284624 .00000360 00000-0 14795-4 0 4845 2 20580 028.4690 069.5105 0003396 289.8843 070.1349 15.00862710875492 ISS (ZARYA) 1 25544U 98067A 09339.34636083 .00008328 00000-0 55749-4 0 1118 2 25544 051.6450 147.2460 0007664 052.1570 015.2600 15.76298550632924 CXO 1 25867U 99040B 09338.33333333 .00000284 00000-0 10000-3 0 4002 2 25867 066.2069 062.6454 7833731 275.2343 352.5557 00.37800900 5659 ____________________________________________________________________ These 2-Line ...Continue Reading

[list_settings.list_name] Current TLEs

December 5th 2009 PST

HST 1 20580U 90037B 09335.75695345 .00000415 00000-0 19004-4 0 4834 2 20580 028.4687 088.6049 0003454 259.9800 100.0422 15.00861827875058 ISS (ZARYA) 1 25544U 98067A 09338.33127149 .00014296 00000-0 92668-4 0 1060 2 25544 051.6462 152.4742 0007839 048.4465 014.8436 15.76299043632765 CXO 1 25867U 99040B 09338.33333333 .00000284 00000-0 10000-3 0 4002 2 25867 066.2069 062.6454 7833731 275.2343 352.5557 00.37800900 5659 ____________________________________________________________________ These 2-Line ...Continue Reading

[list_settings.list_name] Current TLEs

December 4th 2009 PST

HST 1 20580U 90037B 09335.75695345 .00000415 00000-0 19004-4 0 4834 2 20580 028.4687 088.6049 0003454 259.9800 100.0422 15.00861827875058 ISS (ZARYA) 1 25544U 98067A 09337.23980324 .00015002 00000-0 97159-4 0 1000 2 25544 051.6459 158.0971 0007739 044.4573 301.0053 15.76270787632582 CXO 1 25867U 99040B 09335.70833333 .00000367 00000-0 10000-3 0 3994 2 25867 066.2005 062.7496 7827629 275.2803 355.1025 00.37797827 5647 ____________________________________________________________________ These 2-Line ...Continue Reading

[list_settings.list_name] Current TLEs

December 3rd 2009 PST

HST 1 20580U 90037B 09335.75695345 .00000415 00000-0 19004-4 0 4834 2 20580 028.4687 088.6049 0003454 259.9800 100.0422 15.00861827875058 ISS (ZARYA) 1 25544U 98067A 09336.22603009 -.00015010 00000-0 -89495-4 0 958 2 25544 051.6457 163.3243 0007614 042.3613 306.5278 15.76215858632425 CXO 1 25867U 99040B 09335.70833333 .00000367 00000-0 10000-3 0 3994 2 25867 066.2005 062.7496 7827629 275.2803 355.1025 00.37797827 5647 ____________________________________________________________________ These 2-Line ...Continue Reading

[list_settings.list_name] Current TLEs

December 2nd 2009 PST

HST 1 20580U 90037B 09333.76202740 .00000435 00000-0 20545-4 0 4829 2 20580 028.4680 101.6267 0003435 239.2399 120.7924 15.00860943874752 ISS (ZARYA) 1 25544U 98067A 09335.30565878 .00011494 00000-0 75674-4 0 883 2 25544 051.6461 168.0634 0007435 037.3945 125.3902 15.76198372632285 CXO 1 25867U 99040B 09335.70833333 .00000367 00000-0 10000-3 0 3994 2 25867 066.2005 062.7496 7827629 275.2803 355.1025 00.37797827 5647 ____________________________________________________________________ These 2-Line ...Continue Reading

[list_settings.list_name] Current TLEs

December 1st 2009 PST

HST 1 20580U 90037B 09333.76202740 .00000435 00000-0 20545-4 0 4829 2 20580 028.4680 101.6267 0003435 239.2399 120.7924 15.00860943874752 ISS (ZARYA) 1 25544U 98067A 09334.32442130 .00014203 00000-0 92577-4 0 814 2 25544 051.6475 173.1165 0007323 033.1354 318.0962 15.76182279632129 CXO 1 25867U 99040B 09333.08333333 .00000490 00000-0 10000-3 0 3984 2 25867 066.1851 062.8876 7826296 275.2885 357.7085 00.37807320 5630 ____________________________________________________________________ These 2-Line ...Continue Reading

[list_settings.list_name] Current TLEs

November 30th 2009 PST

HST 1 20580U 90037B 09331.83359940 .00000419 00000-0 19328-4 0 4818 2 20580 028.4682 114.2145 0003348 221.0088 139.0394 15.00859792874468 ISS (ZARYA) 1 25544U 98067A 09333.37390046 .00017370 00000-0 11235-3 0 758 2 25544 051.6458 178.0130 0007369 029.5110 324.6481 15.76163626631971 CXO 1 25867U 99040B 09333.08333333 .00000490 00000-0 10000-3 0 3984 2 25867 066.1851 062.8876 7826296 275.2885 357.7085 00.37807320 5630 ____________________________________________________________________ These 2-Line ...Continue Reading

[list_settings.list_name] Current TLEs

November 29th 2009 PST

HST 1 20580U 90037B 09331.83359940 .00000419 00000-0 19328-4 0 4818 2 20580 028.4682 114.2145 0003348 221.0088 139.0394 15.00859792874468 ISS (ZARYA) 1 25544U 98067A 09332.36041667 .00019073 00000-0 12310-3 0 687 2 25544 051.6459 183.2345 0007436 026.3346 333.3198 15.76132763631812 CXO 1 25867U 99040B 09333.08333333 .00000490 00000-0 10000-3 0 3984 2 25867 066.1851 062.8876 7826296 275.2885 357.7085 00.37807320 5630 ____________________________________________________________________ These 2-Line ...Continue Reading

[list_settings.list_name] Current TLEs

November 28th 2009 PST

HST 1 20580U 90037B 09327.91023735 .00000363 00000-0 15029-4 0 4803 2 20580 028.4678 139.8263 0003384 179.5615 180.4987 15.00857635873876 ISS (ZARYA) 1 25544U 98067A 09331.34092593 .00015332 00000-0 10000-3 0 620 2 25544 051.6455 188.4863 0007578 022.4470 308.6948 15.76085418631656 CXO 1 25867U 99040B 09330.41666667 .00000516 00000-0 10000-3 0 3975 2 25867 066.1690 063.0249 7823491 275.2681 354.7319 00.37808764 5625 ____________________________________________________________________ These 2-Line ...Continue Reading
  • This mailing list is a public mailing list - anyone may join or leave, at any time.
  • This mailing list is announce-only.

International Space Station (ISS) / Hubble Space Telescope (HST) / Chandra X-Ray Observatory Orbital Data via EMAIL

Privacy Policy:

Private list